GPS BIIF-7

Last updated on Thu Apr 09 2026 00:02:35 GMT+0000 (Coordinated Universal Time)

1 40105U 14045A 26098.24972153 .00000025 00000+0 00000+0 0 9997 2 40105 55.3069 91.2494 0031417 119.6962 240.6248 2.00553909 84673
UTC large
Height (km)
Speed (km/s)
/
Latitude / Longitude
Inclination (degrees)
Orbital Period (minutes)
Azimuth
Elevation
Range (km)
Doppler Factor

Next 0 passes for location: London (51.5072 / 0.1276)

Sorry there are no passes over London.